TimeEDT,TemperatureF,Dew PointF,Humidity,Sea Level PressureIn,VisibilityMPH,Wind Direction,Wind SpeedMPH,Gust SpeedMPH,PrecipitationIn,Events,Conditions,WindDirDegrees,DateUTC
12:15 AM,62.6,57.6,84,29.90,10.0,WSW,4.6,-,N/A,,Clear,250,2013-06-15 04:15:00
12:35 AM,62.8,57.4,82,29.90,10.0,Calm,Calm,-,N/A,,Clear,0,2013-06-15 04:35:00
12:55 AM,61.9,57.2,85,29.90,10.0,Calm,Calm,-,N/A,,Clear,0,2013-06-15 04:55:00
1:15 AM,62.1,57.2,84,29.91,10.0,Calm,Calm,-,N/A,,Clear,0,2013-06-15 05:15:00
1:35 AM,61.9,57.2,85,29.91,10.0,Calm,Calm,-,N/A,,Clear,0,2013-06-15 05:35:00
1:55 AM,60.8,57.0,87,29.91,10.0,WSW,3.5,-,N/A,,Clear,250,2013-06-15 05:55:00
2:15 AM,61.9,56.3,82,29.91,10.0,Calm,Calm,-,N/A,,Clear,0,2013-06-15 06:15:00
2:35 AM,61.3,56.1,83,29.91,10.0,Calm,Calm,-,N/A,,Clear,0,2013-06-15 06:35:00
2:55 AM,61.5,56.5,83,29.92,10.0,West,4.6,-,N/A,,Clear,270,2013-06-15 06:55:00
3:15 AM,61.7,56.3,82,29.93,10.0,Calm,Calm,-,N/A,,Clear,0,2013-06-15 07:15:00
3:35 AM,61.0,55.9,83,29.93,10.0,Calm,Calm,-,N/A,,Clear,0,2013-06-15 07:35:00
3:55 AM,60.8,55.9,84,29.92,10.0,Calm,Calm,-,N/A,,Clear,0,2013-06-15 07:55:00
4:15 AM,60.4,55.6,84,29.92,10.0,Calm,Calm,-,N/A,,Clear,0,2013-06-15 08:15:00
4:35 AM,59.9,55.6,86,29.93,10.0,Calm,Calm,-,N/A,,Clear,0,2013-06-15 08:35:00
4:55 AM,59.9,55.6,86,29.94,10.0,Calm,Calm,-,N/A,,Clear,0,2013-06-15 08:55:00
5:15 AM,58.8,54.9,87,29.94,10.0,Calm,Calm,-,N/A,,Clear,0,2013-06-15 09:15:00
5:35 AM,59.5,56.1,88,29.95,10.0,Calm,Calm,-,N/A,,Clear,0,2013-06-15 09:35:00
5:55 AM,59.4,55.8,88,29.95,10.0,Calm,Calm,-,N/A,,Clear,0,2013-06-15 09:55:00
6:15 AM,60.1,56.3,87,29.95,10.0,Calm,Calm,-,N/A,,Clear,0,2013-06-15 10:15:00
6:35 AM,60.8,56.7,86,29.96,10.0,WSW,3.5,-,N/A,,Clear,240,2013-06-15 10:35:00
6:55 AM,62.2,56.8,82,29.96,10.0,Calm,Calm,-,N/A,,Clear,0,2013-06-15 10:55:00
7:15 AM,63.5,57.2,80,29.97,10.0,Calm,Calm,-,N/A,,Clear,0,2013-06-15 11:15:00
7:35 AM,65.3,58.1,77,29.97,10.0,West,5.8,-,N/A,,Clear,280,2013-06-15 11:35:00
7:55 AM,67.1,58.1,73,29.98,10.0,WNW,4.6,-,N/A,,Clear,290,2013-06-15 11:55:00
8:15 AM,68.4,58.6,71,29.99,10.0,WNW,8.1,-,N/A,,Clear,290,2013-06-15 12:15:00
8:35 AM,69.3,58.5,68,30.00,10.0,West,6.9,-,N/A,,Clear,280,2013-06-15 12:35:00
8:55 AM,70.5,57.9,64,30.01,10.0,WNW,6.9,-,N/A,,Clear,300,2013-06-15 12:55:00
9:15 AM,71.6,57.6,61,30.01,10.0,WNW,9.2,-,N/A,,Clear,290,2013-06-15 13:15:00
9:35 AM,72.7,56.8,57,30.02,10.0,NW,8.1,-,N/A,,Clear,310,2013-06-15 13:35:00
9:55 AM,73.6,56.8,56,30.01,10.0,WNW,8.1,-,N/A,,Clear,290,2013-06-15 13:55:00
10:15 AM,74.3,55.4,52,30.00,10.0,WNW,6.9,-,N/A,,Clear,300,2013-06-15 14:15:00
10:35 AM,75.0,54.3,48,30.00,10.0,West,9.2,-,N/A,,Clear,280,2013-06-15 14:35:00
10:55 AM,76.5,49.3,38,30.00,10.0,NW,10.4,-,N/A,,Clear,310,2013-06-15 14:55:00
11:15 AM,77.0,52.2,42,30.01,10.0,West,9.2,-,N/A,,Clear,280,2013-06-15 15:15:00
11:35 AM,77.5,53.6,43,29.99,10.0,NNW,5.8,-,N/A,,Clear,340,2013-06-15 15:35:00
11:55 AM,77.5,53.1,42,30.00,10.0,NW,8.1,-,N/A,,Clear,320,2013-06-15 15:55:00
12:15 PM,79.2,54.5,42,30.00,10.0,West,9.2,-,N/A,,Scattered Clouds,280,2013-06-15 16:15:00
12:35 PM,79.5,52.2,38,29.99,10.0,West,12.7,16.1,N/A,,Clear,280,2013-06-15 16:35:00
12:55 PM,79.5,50.9,37,29.98,10.0,NW,9.2,-,N/A,,Scattered Clouds,310,2013-06-15 16:55:00
1:15 PM,79.9,51.8,38,29.97,10.0,WNW,10.4,17.3,N/A,,Scattered Clouds,300,2013-06-15 17:15:00
1:35 PM,80.6,52.7,38,29.97,10.0,West,9.2,16.1,N/A,,Scattered Clouds,280,2013-06-15 17:35:00
1:55 PM,79.9,50.9,36,29.98,10.0,West,10.4,-,N/A,,Mostly Cloudy,260,2013-06-15 17:55:00
2:15 PM,81.7,53.1,37,29.96,10.0,West,11.5,-,N/A,,Mostly Cloudy,270,2013-06-15 18:15:00
2:35 PM,80.2,52.0,37,29.96,10.0,WNW,11.5,16.1,N/A,,Mostly Cloudy,290,2013-06-15 18:35:00
2:55 PM,81.5,54.0,39,29.96,10.0,West,13.8,-,N/A,,Mostly Cloudy,280,2013-06-15 18:55:00
3:15 PM,80.8,52.7,38,29.95,10.0,West,11.5,-,N/A,,Scattered Clouds,270,2013-06-15 19:15:00
3:35 PM,79.9,52.0,38,29.95,10.0,WSW,5.8,16.1,N/A,,Mostly Cloudy,250,2013-06-15 19:35:00
3:55 PM,80.4,51.4,36,29.93,10.0,West,5.8,-,N/A,,Mostly Cloudy,280,2013-06-15 19:55:00
4:15 PM,82.2,52.3,35,29.93,10.0,West,8.1,18.4,N/A,,Scattered Clouds,280,2013-06-15 20:15:00
4:35 PM,81.3,52.0,36,29.93,10.0,West,6.9,-,N/A,,Mostly Cloudy,260,2013-06-15 20:35:00
4:55 PM,80.8,51.6,36,29.93,10.0,West,9.2,19.6,N/A,,Mostly Cloudy,270,2013-06-15 20:55:00
5:15 PM,82.6,51.8,34,29.93,10.0,West,12.7,17.3,N/A,,Mostly Cloudy,280,2013-06-15 21:15:00
5:35 PM,81.1,51.1,35,29.93,10.0,West,9.2,-,N/A,,Mostly Cloudy,280,2013-06-15 21:35:00
5:55 PM,81.5,50.2,34,29.93,10.0,West,6.9,-,N/A,,Scattered Clouds,260,2013-06-15 21:55:00
6:15 PM,81.7,51.4,35,29.93,10.0,WNW,6.9,18.4,N/A,,Scattered Clouds,300,2013-06-15 22:15:00
6:35 PM,81.1,51.4,36,29.93,10.0,West,6.9,-,N/A,,Scattered Clouds,280,2013-06-15 22:35:00
6:55 PM,80.8,51.6,36,29.94,10.0,West,10.4,-,N/A,,Scattered Clouds,270,2013-06-15 22:55:00
7:15 PM,80.2,50.4,35,29.93,10.0,West,9.2,-,N/A,,Clear,270,2013-06-15 23:15:00
7:35 PM,79.7,50.5,36,29.93,10.0,West,5.8,-,N/A,,Clear,260,2013-06-15 23:35:00
7:55 PM,79.2,50.5,37,29.94,10.0,West,5.8,-,N/A,,Scattered Clouds,260,2013-06-15 23:55:00
8:15 PM,78.6,51.1,38,29.95,10.0,West,4.6,-,N/A,,Clear,260,2013-06-16 00:15:00
8:35 PM,77.9,51.6,40,29.95,10.0,West,4.6,-,N/A,,Scattered Clouds,270,2013-06-16 00:35:00
8:55 PM,77.0,52.0,42,29.96,10.0,West,5.8,-,N/A,,Scattered Clouds,260,2013-06-16 00:55:00
9:15 PM,75.9,52.9,45,29.96,10.0,West,5.8,-,N/A,,Scattered Clouds,270,2013-06-16 01:15:00
9:35 PM,75.7,52.5,44,29.97,10.0,WSW,4.6,-,N/A,,Scattered Clouds,250,2013-06-16 01:35:00
9:55 PM,74.5,53.1,47,29.97,10.0,West,4.6,-,N/A,,Clear,260,2013-06-16 01:55:00
10:15 PM,74.3,53.1,47,29.98,10.0,West,4.6,-,N/A,,Clear,260,2013-06-16 02:15:00
10:35 PM,73.6,54.3,51,29.98,10.0,West,5.8,-,N/A,,Clear,260,2013-06-16 02:35:00
10:55 PM,72.7,54.7,53,29.98,10.0,West,4.6,-,N/A,,Clear,270,2013-06-16 02:55:00
11:15 PM,70.7,55.4,58,29.99,10.0,West,5.8,-,N/A,,Clear,280,2013-06-16 03:15:00
11:35 PM,70.7,55.4,58,29.99,10.0,Calm,Calm,-,N/A,,Clear,0,2013-06-16 03:35:00
11:55 PM,70.3,55.4,59,29.99,10.0,West,3.5,-,N/A,,Clear,270,2013-06-16 03:55:00